TimeCDT,TemperatureF,Dew PointF,Humidity,Sea Level PressureIn,VisibilityMPH,Wind Direction,Wind SpeedMPH,Gust SpeedMPH,PrecipitationIn,Events,Conditions,WindDirDegrees,DateUTC
12:52 AM,64.0,53.1,67,30.05,10.0,North,9.2,-,N/A,,Clear,10,2013-07-01 05:52:00
1:52 AM,63.0,53.1,70,30.05,10.0,North,6.9,-,N/A,,Clear,10,2013-07-01 06:52:00
2:52 AM,62.1,53.1,72,30.05,10.0,NNE,5.8,-,N/A,,Clear,20,2013-07-01 07:52:00
3:52 AM,61.0,53.1,75,30.06,10.0,Calm,Calm,-,N/A,,Clear,0,2013-07-01 08:52:00
4:52 AM,60.1,53.1,78,30.06,10.0,North,8.1,-,N/A,,Clear,360,2013-07-01 09:52:00
5:52 AM,60.1,52.0,75,30.07,10.0,North,8.1,-,N/A,,Clear,10,2013-07-01 10:52:00
6:52 AM,63.0,52.0,67,30.08,10.0,North,6.9,-,N/A,,Clear,10,2013-07-01 11:52:00
7:52 AM,66.9,53.1,61,30.09,10.0,North,9.2,-,N/A,,Clear,10,2013-07-01 12:52:00
8:52 AM,71.1,52.0,51,30.10,10.0,NE,9.2,-,N/A,,Clear,40,2013-07-01 13:52:00
9:52 AM,73.0,51.1,46,30.11,10.0,NNE,9.2,-,N/A,,Clear,30,2013-07-01 14:52:00
10:52 AM,75.0,51.1,43,30.11,10.0,NNE,13.8,-,N/A,,Clear,30,2013-07-01 15:52:00
11:52 AM,77.0,53.1,43,30.10,10.0,NNE,17.3,23.0,N/A,,Clear,30,2013-07-01 16:52:00
12:52 PM,78.1,54.0,43,30.09,10.0,NNE,15.0,-,N/A,,Clear,30,2013-07-01 17:52:00
1:52 PM,79.0,55.9,45,30.08,10.0,ENE,9.2,-,N/A,,Partly Cloudy,60,2013-07-01 18:52:00
2:52 PM,79.0,53.1,40,30.09,10.0,NE,16.1,20.7,N/A,,Clear,50,2013-07-01 19:52:00
3:52 PM,79.0,52.0,39,30.08,10.0,ENE,11.5,-,N/A,,Partly Cloudy,70,2013-07-01 20:52:00
4:52 PM,80.1,54.0,40,30.08,10.0,NE,13.8,24.2,N/A,,Scattered Clouds,50,2013-07-01 21:52:00
5:52 PM,77.0,53.1,43,30.08,10.0,NE,12.7,-,N/A,,Partly Cloudy,40,2013-07-01 22:52:00
6:52 PM,78.1,53.1,42,30.08,10.0,NE,12.7,-,N/A,,Clear,40,2013-07-01 23:52:00
7:52 PM,75.9,53.1,45,30.08,10.0,NNE,11.5,-,N/A,,Clear,30,2013-07-02 00:52:00
8:52 PM,72.0,54.0,53,30.08,10.0,NNE,6.9,-,N/A,,Partly Cloudy,30,2013-07-02 01:52:00
9:52 PM,70.0,54.0,57,30.09,10.0,NNE,5.8,-,N/A,,Clear,30,2013-07-02 02:52:00
10:52 PM,66.9,55.0,66,30.10,10.0,North,4.6,-,N/A,,Clear,10,2013-07-02 03:52:00
11:52 PM,66.9,55.0,66,30.10,10.0,Calm,Calm,-,N/A,,Clear,0,2013-07-02 04:52:00